Terminal Aerodrome Forecast
Issued by NWS

Home | Current Version | Previous Version | Text Only | Print | Product List | Glossary On
Versions: 1 2 3 4 5 6 7 8 9 10 11 12 13 14 15 16 17 18 19 20
000
FTUS43 KDDC 232322
TAFHYS
TAF
KHYS 232322Z 2400/2424 18006KT P6SM SKC
     FM241200 23006KT 4SM BR SKC
     FM241400 24009KT P6SM SKC=

USA.gov is the U.S. government's official web portal to all federal, state and local government web resources and services.